SCP
0 0 0 0 0 0 0 0 0 0 0 0 0 0 0 0 0 0 0 0 0 0 0 0 0 0 0 0 0 0 0 0 0 0 0 0 0 0 0 1 2 1 1 0
0 0 0 0 0 0 0 0 0 0 0 0 0 0 0 0 0 0 0 0 0 0 0 0 0 0 0 0 0 0 0 0 0 0 0 0 0 0 0 1 1 1 1 1
0 0 0 0 0 0 0 0 0 0 0 0 0 0 0 0 0 0 0 0 0 0 0 0 0 0 0 0 0 0 0 0 0 0 0 0 0 0 1 1 1 1 1 1
0 0 0 0 0 0 0 0 0 0 0 0 0 0 0 0 0 0 0 0 0 0 0 0 0 0 0 0 0 0 0 0 0 0 1 1 0 1 1 1 1 2 2 1
0 0 0 0 0 0 0 0 0 0 0 0 0 0 0 0 0 0 0 0 0 0 0 0 0 0 0 0 0 0 0 0 0 1 1 1 1 1 1 1 1 2 2 2
0 0 0 0 0 0 0 0 0 0 0 0 0 0 0 0 0 0 0 0 0 0 0 0 0 0 0 0 0 0 0 0 0 1 1 1 1 1 1 1 1 2 2 2
0 0 0 0 0 0 0 0 0 0 0 0 0 0 0 0 0 0 0 0 0 0 0 0 0 0 0 0 0 0 0 0 0 0 1 1 1 1 1 0 1 1 2 2
0 0 0 0 0 0 0 0 0 0 0 0 0 0 0 0 0 0 0 0 0 0 0 0 0 0 0 0 0 0 0 0 0 0 0 0 1 1 1 1 0 0 1 1
0 0 0 0 0 0 0 0 0 0 0 0 0 0 0 0 0 0 0 0 0 0 0 0 0 0 0 0 0 0 0 0 0 0 0 0 1 1 1 1 0 0 0 0
0 0 0 0 0 0 0 0 0 0 0 0 0 0 0 0 0 0 0 0 0 0 0 0 0 0 0 0 0 0 0 0 0 0 0 0 0 1 1 1 1 0 0 0
0 0 0 0 0 0 0 0 0 0 0 0 0 0 0 0 0 0 0 0 0 0 0 0 0 0 0 0 0 0 0 0 0 0 0 0 0 0 1 1 1 0 0 0
0 0 0 0 0 0 0 0 0 0 0 0 0 0 0 0 0 0 0 0 0 0 0 0 0 0 0 0 0 0 0 0 0 0 0 0 0 0 0 1 1 0 0 0
0 0 0 0 0 0 0 0 0 0 0 0 0 0 0 0 0 0 0 0 0 0 0 0 0 0 0 0 0 0 0 0 0 0 0 0 0 0 0 0 0 0 0 0
0 0 0 0 0 0 0 0 0 0 0 0 0 0 0 0 0 0 0 0 0 0 0 0 0 0 0 0 0 0 0 0 0 0 0 0 0 0 0 0 0 0 0 0
0 0 0 0 0 0 0 0 0 0 0 0 0 0 0 0 0 0 0 0 0 0 0 0 0 0 0 0 0 0 0 0 0 0 0 0 0 0 0 0 0 0 0 0
0 0 0 0 0 0 0 0 0 0 0 0 0 0 0 0 0 0 0 0 0 0 0 0 0 0 0 0 0 0 0 0 0 0 0 0 0 0 0 0 0 0 0 0
0 0 0 0 0 0 0 0 0 0 0 0 0 0 0 0 0 0 0 0 0 0 0 0 0 0 0 0 0 0 0 0 0 0 0 0 0 0 0 0 0 0 0 0
0 0 0 0 0 0 0 0 0 0 0 0 0 0 0 0 0 0 0 0 0 0 0 0 0 0 0 0 0 0 0 0 0 0 0 0 0 0 0 0 0 0 0 0
0 0 0 0 0 0 0 0 0 0 0 0 0 0 0 0 0 0 0 0 0 0 0 0 0 0 0 0 0 0 0 0 0 0 0 0 0 0 0 0 0 0 0 0
0 0 0 0 0 0 0 0 0 0 0 0 0 0 0 0 0 0 0 0 0 0 0 0 0 0 0 0 0 0 0 0 0 0 0 0 0 0 0 0 0 0 0 0
0 0 0 0 0 0 0 0 0 0 0 0 0 0 0 0 0 0 0 0 0 0 0 0 0 0 0 0 0 0 0 0 0 0 0 0 0 0 0 0 0 0 0 0
0 0 0 0 0 0 0 0 0 0 0 0 0 0 0 0 0 0 0 0 0 0 0 0 0 0 0 0 0 0 0 0 0 0 0 0 0 0 0 0 0 0 0 0
0 0 0 0 0 0 0 0 0 0 0 0 0 0 0 0 0 0 0 0 0 0 0 0 0 0 0 0 0 0 0 0 0 0 0 0 0 0 0 0 0 0 0 0
0 0 0 0 0 0 0 0 0 0 0 0 0 0 0 0 0 0 0 0 0 0 0 0 0 0 0 0 0 0 0 0 0 0 0 0 0 0 0 0 0 0 0 0
0 0 0 0 0 0 0 0 0 0 0 0 0 0 0 0 0 0 0 0 0 0 0 0 0 0 0 0 0 0 0 0 0 0 0 0 0 0 0 0 0 0 0 0
0 0 0 0 0 0 0 0 0 0 0 0 0 0 0 0 0 0 0 0 0 0 0 0 0 0 0 0 0 0 0 0 0 0 0 0 0 0 0 0 0 0 0 0
Wind_Speed
2 3 1 3 4 3 3 3 1 1 1 1 2 1 3 3 3 3 3 4 4 5 6 7 7 7 7 7 6 5 5 5 3 2 1 1 1 1 1 1 2 2 2 1
3 1 3 1 2 3 3 2 0 1 1 1 1 2 2 1 1 1 2 2 3 5 7 8 8 8 8 7 7 6 5 5 4 2 1 1 1 1 2 2 3 4 3 3
2 2 2 2 1 3 2 4 3 1 2 1 1 3 1 1 1 2 2 2 2 3 4 6 7 7 7 7 7 6 6 5 4 4 2 3 2 2 3 4 3 4 4 4
0 2 1 2 1 2 4 3 3 2 2 1 1 3 4 2 2 2 2 2 2 3 3 4 5 6 6 5 6 6 6 6 5 4 3 4 3 2 2 2 2 4 5 5
1 1 0 2 3 2 2 2 3 2 2 0 1 2 5 1 2 3 2 2 2 3 3 3 4 4 5 5 5 5 6 6 6 5 4 3 2 2 2 2 3 3 4 5
1 1 0 2 2 2 1 2 3 2 2 2 3 3 6 3 4 3 2 2 2 3 3 3 4 5 5 6 6 5 6 7 7 6 5 4 3 3 4 4 3 3 2 3
3 2 2 1 1 1 3 4 2 2 1 5 2 3 7 4 3 3 2 2 2 2 3 4 5 6 6 7 6 6 7 7 7 6 5 4 4 4 3 3 3 3 3 3
1 3 2 1 2 2 3 4 5 4 4 3 1 5 5 1 1 0 1 0 2 3 3 4 5 5 5 6 6 6 6 6 7 6 5 4 4 3 3 3 3 3 3 3
1 3 2 1 1 3 4 3 2 3 1 1 4 4 5 1 2 2 2 2 3 3 3 4 4 4 4 5 5 5 5 5 6 5 5 5 5 4 4 4 4 3 4 4
2 2 3 3 1 2 2 4 3 3 3 3 4 4 4 3 2 1 1 1 2 3 3 3 3 3 4 4 4 4 4 4 5 5 5 5 4 4 3 3 4 4 4 5
1 1 3 2 0 1 2 2 3 3 3 3 3 6 3 6 5 3 2 1 1 2 2 3 3 3 3 3 4 4 4 4 5 5 5 5 5 4 4 3 4 4 4 4
1 1 2 3 2 1 2 3 4 3 2 3 3 6 2 3 3 2 1 1 2 2 2 2 2 3 3 4 4 4 4 4 4 4 4 4 5 4 4 4 4 4 4 5
2 2 2 4 2 1 1 2 3 3 2 3 3 7 2 0 0 1 1 1 1 2 2 2 3 3 3 3 3 3 4 4 4 4 4 4 4 4 4 5 4 4 4 5
2 2 3 5 4 2 2 2 4 4 4 4 7 8 5 4 3 2 2 2 2 2 2 2 3 3 3 3 3 4 4 4 4 4 4 4 4 4 4 4 4 4 4 4
2 1 2 3 3 2 3 5 5 7 7 7 7 7 9 7 4 3 2 2 2 2 3 3 3 3 3 4 4 4 4 4 4 4 4 4 4 4 4 5 5 5 4 4
2 1 1 3 3 2 5 7 7 7 7 8 7 10 8 4 2 2 3 3 3 3 3 3 3 3 3 4 4 4 4 4 4 4 4 4 4 4 5 5 5 5 5 5
1 2 1 3 5 4 6 7 7 5 6 7 9 9 3 3 5 5 5 5 4 4 3 3 3 3 3 3 3 4 4 4 4 4 5 5 5 5 5 6 6 6 6 5
3 3 2 1 4 4 7 1 4 5 6 7 6 5 5 5 5 4 4 4 4 3 3 3 3 3 3 3 3 3 3 4 4 5 5 5 5 6 6 5 6 6 5 5
3 5 3 2 1 9 9 4 4 5 6 6 7 6 4 2 2 3 3 3 3 3 3 3 2 2 2 2 3 3 3 4 4 5 6 6 6 6 6 6 6 6 5 5
2 3 3 3 2 8 6 1 1 2 6 5 6 6 4 2 2 5 3 2 2 2 1 2 2 2 2 2 3 3 3 4 5 6 6 6 6 5 6 6 6 5 5 5
2 1 3 4 5 11 7 2 3 3 7 2 4 5 6 6 6 4 2 2 2 2 2 1 1 1 2 2 2 3 3 4 5 6 6 6 6 6 6 6 5 5 5 5
7 6 6 5 5 11 4 6 8 8 2 1 3 4 6 6 4 2 2 2 2 2 1 1 1 2 2 2 2 3 4 5 5 5 5 6 6 5 5 5 5 5 5 5
8 9 7 10 11 5 5 7 5 2 3 3 3 4 4 4 4 4 3 3 3 2 2 1 1 3 3 2 2 3 5 5 5 5 6 6 6 5 5 5 5 5 4 4
5 4 4 7 11 8 7 7 5 4 5 4 3 4 4 5 5 4 4 3 3 3 2 2 2 3 4 3 3 3 4 4 4 5 5 5 5 5 5 4 4 3 4 4
7 6 5 9 9 6 7 9 9 6 4 4 4 4 5 5 5 5 5 4 4 3 2 2 2 4 4 4 4 4 3 3 4 5 5 5 4 4 4 4 4 4 4 4
9 11 10 11 8 7 6 5 5 6 7 7 6 5 4 6 7 5 5 4 3 3 2 2 3 4 4 3 4 4 3 3 3 4 4 4 4 4 4 4 5 6 6 7
Wind_Direction
76 88 182 220 197 159 141 140 162 239 282 89 140 296 324 345 28 35 28 21 18 10 1 10 12 10 14 17 18 17 13 8 14 17 11 340 304 319 6 8 14 358 337 311
81 237 248 222 162 151 157 143 179 329 6 124 124 300 310 342 23 44 32 9 9 8 9 12 15 16 18 17 12 14 10 10 10 1 338 334 336 350 32 22 21 11 2 355
136 288 242 167 131 164 179 187 201 228 3 41 63 326 306 316 36 41 40 30 16 13 359 2 10 13 13 15 10 7 5 6 5 5 20 27 36 29 28 13 7 2 2 5
329 303 274 175 213 190 219 193 178 167 131 270 129 272 272 269 328 353 357 1 349 354 356 356 4 8 11 7 7 8 6 14 13 18 33 45 38 22 348 349 358 6 9 5
268 326 331 216 244 206 220 171 160 164 149 163 168 226 272 218 262 284 297 312 325 340 350 349 354 357 3 7 14 12 15 18 20 23 31 43 36 14 5 13 21 14 11 9
297 324 138 262 265 199 159 102 83 68 91 231 207 203 264 225 225 254 282 316 339 350 353 0 5 8 11 13 16 16 22 20 18 20 23 35 36 26 22 9 4 358 359 3
332 335 349 7 26 94 109 111 77 11 303 246 196 208 248 234 219 210 230 271 331 359 2 7 8 8 8 12 12 13 22 19 16 17 19 25 27 28 22 360 355 353 352 352
53 301 305 351 179 199 173 147 151 183 218 270 239 229 251 256 275 218 161 163 28 17 13 15 11 9 6 8 9 14 20 17 15 15 14 21 24 28 16 3 0 357 343 339
144 272 313 303 270 152 148 166 147 125 77 255 257 279 301 337 17 32 30 31 18 8 6 12 10 10 7 6 5 9 16 15 13 10 16 22 22 23 15 3 8 6 355 354
163 264 297 310 13 46 125 136 118 131 148 253 277 256 244 234 243 299 331 347 345 354 358 357 0 5 6 6 5 10 16 15 9 9 12 15 13 11 6 7 7 2 356 357
145 187 314 13 49 185 111 129 127 133 160 176 259 266 225 208 200 201 239 283 303 328 332 333 344 354 3 7 7 10 11 13 11 8 6 8 5 6 3 0 358 352 348 350
109 119 297 278 259 227 154 158 149 158 217 210 232 267 285 202 197 189 232 301 330 324 324 331 344 353 1 2 360 3 6 8 1 358 2 1 0 359 358 357 353 351 347 348
135 115 20 346 336 8 133 160 155 141 147 192 207 261 322 109 75 244 240 271 310 314 327 343 350 347 347 350 351 355 357 354 352 356 357 356 354 353 347 342 340 345 345 347
114 125 176 208 235 218 246 212 172 166 194 219 228 250 272 267 267 275 265 267 284 293 319 331 332 331 340 345 345 346 347 348 348 351 350 344 340 339 333 331 333 338 340 342
84 152 236 268 287 274 255 245 213 208 212 218 235 238 253 247 237 238 246 263 278 297 310 311 320 332 344 347 345 345 344 344 343 343 341 330 327 332 336 335 332 333 335 333
73 129 345 317 330 315 282 260 238 233 227 231 247 261 255 248 223 227 239 239 245 267 282 297 316 329 333 330 330 335 339 338 341 337 328 326 330 337 339 333 332 334 333 331
93 115 76 295 323 353 285 245 212 211 216 206 229 241 226 233 223 221 227 228 234 254 271 285 298 304 310 311 318 323 325 333 339 333 331 334 335 333 333 333 335 333 330 332
156 123 126 323 18 258 249 197 202 222 247 229 239 248 230 238 245 241 228 219 244 259 271 280 289 296 304 315 329 329 332 335 335 333 332 333 331 325 326 331 332 329 326 324
163 143 124 117 274 281 290 255 200 210 265 235 229 245 253 270 331 284 236 211 230 243 257 268 282 293 310 325 332 335 332 333 334 332 329 328 324 321 324 328 327 324 323 321
105 119 130 141 201 249 256 221 187 110 279 247 208 220 221 138 263 263 237 227 240 251 267 289 310 329 328 328 343 336 327 333 328 324 321 321 320 318 317 315 318 319 317 316
149 156 184 195 232 262 254 213 123 171 251 242 196 203 193 201 229 253 215 224 221 249 273 289 308 308 306 329 345 326 321 317 317 321 321 322 323 319 313 314 318 319 317 320
184 180 194 175 214 256 206 150 190 222 254 206 209 210 213 231 250 247 234 231 229 250 276 287 301 306 319 338 333 309 306 316 325 324 321 320 320 318 319 319 319 322 320 318
207 197 191 197 219 244 184 204 225 225 233 234 225 234 220 231 242 249 245 238 242 244 261 284 286 300 313 322 312 295 308 325 327 324 319 317 319 319 319 317 317 321 321 316
241 203 209 246 256 247 237 241 250 238 236 240 237 237 218 230 242 249 249 252 254 263 267 283 285 286 295 311 313 302 314 326 323 316 314 316 319 321 322 319 314 310 310 308
221 186 214 251 265 277 254 234 238 237 235 244 249 235 229 231 244 240 242 245 246 262 272 262 258 270 283 302 308 313 320 323 314 309 310 314 315 315 317 315 308 304 291 288
196 191 197 232 225 212 239 231 224 223 232 234 238 250 243 226 237 238 239 239 238 249 261 267 270 274 285 298 300 307 314 310 304 307 310 311 312 314 314 315 315 317 314 318